Location: Chmeln�
(49.6483°N, 14.9871°E)
Time: 15:44:28
(UTC+00:00)

CZ-2C R/B - Pass Details

Date: 18 September 2020
Orbit: 704 x 907 km, 98.1° (Epoch: 23 October)

Event Time Altitude Azimuth Distance (km) Brightness Sun altitude
Rises 17:56:41 0° 170° (S) 3,248 6.0 -8.9°
Reaches altitude 10° 17:58:57 10° 173° (S) 2,353 5.3 -9.3°
Maximum altitude 18:04:10 73° 258° (WSW) 868 3.5 -10.1°
Drops below altitude 10° 18:09:43 10° 343° (NNW) 2,504 6.1 -11.0°
Sets 18:12:11 0° 345° (NNW) 3,472 6.8 -11.4°
